Regional Weather Roundup
Issued by NWS

Home | Current Version | Previous Version | Graphics & Text | Print | Product List | Glossary On
Versions: 1 2 3 4 5 6 7 8 9 10 11 12 13 14 15 16 17 18 19 20 21 22 23 24 25 26 27 28 29 30 31 32 33 34 35 36 37 38 39 40 41 42 43 44 45 46 47 48 49 50
142
ASUS45 KBOI 170110
RWRID

IDAHO REGIONAL WEATHER ROUNDUP
NATIONAL WEATHER SERVICE BOISE ID
700 PM MDT MON OCT 16 2017

NOTE: "FAIR" INDICATES FEW OR NO CLOUDS BELOW 12000 FEET
WITH NO SIGNIFICANT WEATHER AND/OR OBSTRUCTIONS TO VISIBILITY

IDZ012-014-170200-
SOUTHWEST IDAHO


CITY           SKY/WX    TMP DP  RH WIND       PRES   REMARKS
BOISE          CLEAR     60  30  32 W5        30.25F
CALDWELL       CLEAR     58  30  34 CALM      30.25F
MOUNTAIN HOME  CLEAR     55  29  36 SW8       30.26S
$$

IDZ016-017-170200-
SOUTHCENTRAL IDAHO


CITY           SKY/WX    TMP DP  RH WIND       PRES   REMARKS
BURLEY         CLEAR     55  23  28 CALM      30.27F
JEROME         CLEAR     57  27  31 SE5       30.28F
TWIN FALLS     CLEAR     44  32  62 CALM      30.28F
$$

IDZ019>023-170200-
SOUTHEAST IDAHO


CITY           SKY/WX    TMP DP  RH WIND       PRES   REMARKS
IDAHO FALLS    CLEAR     53  30  41 CALM      30.32F
POCATELLO      CLEAR     48  27  44 SE5       30.30F
REXBURG        CLEAR     51  22  31 CALM      30.32F
$$

IDZ006-010-011-018-031-032-170200-
CENTRAL IDAHO MOUNTAINS


CITY           SKY/WX    TMP DP  RH WIND       PRES   REMARKS
MCCALL         PTCLDY    51  30  44 S3        30.28S
HAILEY         CLEAR     52  25  35 SE8       30.32F
STANLEY          N/A     44  23  43 CALM      30.34R
SALMON         CLEAR     50  29  44 SE5       30.23S
CHALLIS        PTCLDY    48  25  40 SW5       30.24S
$$

IDZ002-004-006-007-026-170200-
NORTHERN IDAHO


CITY           SKY/WX    TMP DP  RH WIND       PRES   REMARKS
LEWISTON       CLEAR     64  34  32 SW3       30.13F
LOWELL           N/A     49  44  83 CALM      30.18S
COEUR D`ALENE  CLEAR     56  34  43 S6        30.13F
MULLAN PASS    CLEAR     44  21  40 VRB5      30.22S
$$




USA.gov is the U.S. government's official web portal to all federal, state and local government web resources and services.